Volver al catálogo

STARLINK-37283

ActivoComunicacionesVLEO
NORAD 68568·PAYLOAD·🇺🇸 United States

Lanzado Apr 2, 2026 desde Cape Canaveral Space Force Station

Loading…

Próximos Pases (próximas 24 horas)

TLE

ActualizadoSource: CelesTrak SupGP

Época: Sep 14, 2026, 21:25 UTC

1 68568C 26070AC  26257.89284722  .00015313  00000+0  45253-3 0  2573
2 68568  53.1591 200.2572 0001519  91.4072 205.9598 15.34375780    18

Sigue STARLINK-37283 en tiempo real con AllMySat

Download on the App Store